Regional Weather Roundup
Issued by NWS Charleston, SC

Current Version | Previous Version | Text Only | Print | Product List | Glossary Off
Versions: 1 2 3 4 5 6 7 8 9 10 11 12 13 14 15 16 17 18 19 20 21 22 23 24 25 26 27 28 29 30 31 32 33 34 35 36 37 38 39 40 41 42 43 44 45 46 47 48 49 50

000
ASUS42 KCHS 232210
RWRCHS

REGIONAL WEATHER ROUNDUP
NATIONAL WEATHER SERVICE CHARLESTON SC
600 PM EDT WED JUL 23 2014

NOTE: "FAIR" INDICATES FEW OR NO CLOUDS BELOW 12,000 FEET WITH NO
SIGNIFICANT WEATHER AND/OR OBSTRUCTIONS TO VISIBILITY.

NOT ALL STATIONS ARE QUALITY CONTROLLED BY THE NATIONAL
WEATHER SERVICE. USE DATA WITH CAUTION...ESPECIALLY
DEWPOINT OBSERVATIONS.

SCZ027-030-031-034>040-042>050-232300-
...SOUTH CAROLINA...

CITY           SKY/WX    TMP DP  RH WIND       PRES   REMARKS
N CHARLESTON   PTSUNNY   81  75  82 SW7       30.00F
WATERFRONT PRK   N/A     82 N/A N/A S3          N/A
FORT JOHNSON   NOT AVBL
MOUNT PLEASANT FAIR      81  75  83 CALM      30.00F HAZE
JOHNS ISLAND   PTCLDY    84  68  58 CALM      30.01F
PINOPOLIS        N/A     90  77  66 S5        29.93S HX 102
MONCKS CORNER    N/A     86  77  74 S9        29.99F HX  97
SUMMERVILLE    FAIR      90  73  58 SE8       30.00S HX  98
BEAUFORT MCAS  PTSUNNY   87  75  67 SW7       30.00S HX  96
BEAUFORT ARPT  FAIR      86  75  70 S3        30.00R HX  95
HILTON HEAD IS SUNNY     86  73  66 SE9       30.02S HX  93
GEORGETOWN     NOT AVBL
WALTERBORO     MOCLDY    86  70  58 SE13G21   30.01S HX  90
ORANGEBURG     SUNNY     91  71  51 S8        29.97F HX  97
BARNWELL       FAIR      91  72  52 S7        29.98F HX  98
AIKEN          FAIR      90  73  58 S8        30.01F HX  98
MANNING        FAIR      90  61  37 S5        29.97S
KINGSTREE      NOT AVBL
COLUMBIA       MOSUNNY   92  70  48 SW10      29.96S HX  97
SUMTER         MOSUNNY   90  74  58 S7        29.96S HX 100
FLORENCE       MOSUNNY   90  73  57 S8        29.96S HX  98
MYRTLE BEACH   PTSUNNY   81  75  83 S9        30.00F
N MYRTLE BEACH LGT RAIN  81  76  84 SW14      29.99F

$$

GAZ063-065-086>088-099>101-113>116-118-119-134-136>141-150-232300-
...GEORGIA...

CITY           SKY/WX    TMP DP  RH WIND       PRES   REMARKS
SAVANNAH ARPT  PTSUNNY   89  75  63 S12G17    30.00S HX  99
HUNTER AAF     MOSUNNY   87  75  68 SE9       29.99S HX  96
FORT STEWART   MOSUNNY   89  77  67 S8        29.98F HX 102
STATESBORO     NOT AVBL
SYLVANIA       PTCLDY    91  76  61 SW5       29.99F HX 101
CLAXTON        FAIR      91  73  55 SW3       29.98F HX 100
THOMSON        SUNNY     92  77  63 W5        30.01F HX 105
AUGUSTA-BUSH   PTSUNNY   91  70  49 SW8       29.96F HX  96
AUGUSTA-DANIEL PTSUNNY   89  72  56 SW6       29.98F HX  96
SWAINSBORO     FAIR      91  73  55 S3        29.99F HX 100
VIDALIA          N/A     91  70  49 SW9       29.99S HX  97
ALMA           SUNNY     94  64  37 SW7       29.98F HX  95
WAYCROSS       SUNNY     96  71  43 W6        29.99S HX 104
JESUP          NOT AVBL
BRUNSWICK      MOSUNNY   88  73  62 CALM      30.00F HX  96
SAINT SIMONS   MOSUNNY   86  74  67 SE13      30.00F HX  94

$$

SCZ027-028-034-036>038-045-046-048>050-GAZ119-141-232300-
...LAKE AND SUPPLEMENTAL COASTAL OBSERVATIONS...

STATION/POSITION TIME  TEMP    WIND        PRES    WAVE   SWELL
                       AIR SEA DIR/SP/G            HT/PER HT/PER/DIR
                 (UTC) (F)     (DEG/KT/KT) (MB)    (FT/S) (FT/S/D)
UPR LAKE MARION  NOT AVBL
WINYAH BAY       NOT AVBL
LAKE MURRAY      2100   89     220/  3/  6 1013.9F
ACE BASIN NERRS  NOT AVBL
FORT PULASKI     2200   86     130/  7/ 10 1016.2R
SAPELO ISLAND    2100   92     140/  7     1017.0F

$$

ANZ835-935-AMZ111-154-330-350-352-354-374-450-454-472-232300-
...C-MAN AND BUOY OBSERVATIONS...

STATION/POSITION TIME  TEMP    WIND        PRES    WAVE   SWELL
                       AIR SEA DIR/SP/G            HT/PER HT/PER/DIR
                 (UTC) (F)     (DEG/KT/KT) (MB)    (FT/S) (FT/S/D)
FOLLY BEACH CMAN 2100   85     190/  9/ 11 1017.0R
BUOY 41004       2200   83 83  190/ 12/ 14 1015.5F   3/ 6   2/ 6
BUOY 41008       2200   84 87  160/ 10/ 12 1016.0F   3/ 6   2/120/ 6
5E ST. MARYS GA  2200      85                N/A     2/ 7
FRYING PAN BUOY  NOT AVBL
BUOY 41025       2200          VRB 21/ 25  1013.8F   4/ 4   2/180/ 7
CAPE LOOKOUT NC  2100   81     200/ 12/ 15 1014.9F
BUOY 41002       2106   82 82  220/ 14/ 16 1018.6F   4/ 5   2/120/ 8
BUOY 41010       2200   82 83  220/ 12/ 14 1017.8F   3/ 5   2/120/ 8
BUOY 41012       NOT AVBL
ST AUGUSTINE FL  2200   83     140/ 11/ 12 1016.8F
CAPERS NEARSHORE 2100   83     210/ 12/ 16   N/A
FRIPP NEARSHORE  NOT AVBL


$$



USA.gov is the U.S. government's official web portal to all federal, state and local government web resources and services.